Change the Weather History Date:

Sunday, May 5, 2013

  Actual Average (KTYS) Record (KTYS)
Temperature  
Mean Temperature 55 °F 64 °F  
Max Temperature 59 °F 75 °F 93 °F (1959)
Min Temperature 51 °F 53 °F 37 °F (1954)
Degree Days  
Heating Degree Days 10 3  
Month to date heating degree days 17  
Since 1 July heating degree days 3592  
Cooling Degree Days 0 2  
Month to date cooling degree days 10  
Year to date cooling degree days 47  
Growing Degree Days 5 (Base 50)    
Moisture  
Dew Point 54 °F    
Average Humidity 95    
Maximum Humidity 100    
Minimum Humidity 87    
Precipitation  
Precipitation 2.07 in 0.15 in 3.04 in (2003)
Month to date precipitation 0.75  
Year to date precipitation 17.68  
Snow  
Snow 0.00 in 0.00 in - ()
Month to date snowfall 0.0  
Since 1 July snowfall 6.5  
Snow Depth -    
Sea Level Pressure  
Sea Level Pressure 29.84 in    
Wind  
Wind Speed 3 mph (ENE)    
Max Wind Speed 8 mph    
Max Gust Speed 16 mph    
Visibility 5 miles    
Events Rain    
T = Trace of Precipitation, MM = Missing Value Source: NWS Daily Summary

Daily Weather History Graph

Daily Weather History Graph

Search for Another Location

Airport or City:

Trip Planner

Search our weather history database for the weather conditions in past years. The results will help you decide how hot, cold, wet, or windy it might be!

Date:

Astronomy

May. 05, 2013 Rise Set
Actual Time 6:39 AM EDT 8:27 PM EDT
Civil Twilight 6:12 AM EDT 8:55 PM EDT
Nautical Twilight 5:38 AM EDT 9:29 PM EDT
Astronomical Twilight 5:02 AM EDT 10:05 PM EDT
Moon 4:01 AM EDT (5/5) 4:33 PM EDT (5/5)
Length of Visible Light 14h 43m
Length of Day
13h 47m
Waning Crescent, 18% of the Moon is Illuminated
May 5
Waning Crescent
May 9
New
May 18
First Quarter
May 25
Full
May 31
Last Quarter

Hourly Weather History & Observations

Time (EDT) Temp. Dew Point Humidity Pressure Visibility Wind Dir Wind Speed Gust Speed Precip Events Conditions
12:53 AM 54.0 °F 52.0 °F 93% 29.91 in 5.0 mi NE 5.8 mph - 0.06 in Rain Rain
1:53 AM 53.1 °F 52.0 °F 96% 29.87 in 10.0 mi NE 5.8 mph - 0.08 in Rain Light Rain
2:53 AM 53.1 °F 51.1 °F 93% 29.83 in 10.0 mi NE 5.8 mph - 0.01 in Rain Light Rain
3:53 AM 53.1 °F 51.1 °F 93% 29.81 in 10.0 mi Variable 3.5 mph - 0.01 in Rain Light Rain
4:53 AM 52.0 °F 51.1 °F 97% 29.83 in 8.0 mi Calm Calm - 0.04 in Rain Light Rain
5:53 AM 52.0 °F 51.1 °F 97% 29.83 in 4.0 mi Calm Calm - 0.10 in Rain Rain
6:53 AM 52.0 °F 51.1 °F 97% 29.83 in 3.0 mi Calm Calm - 0.15 in Rain Rain
7:53 AM 52.0 °F 52.0 °F 100% 29.85 in 3.0 mi Calm Calm - 0.15 in Rain Rain
8:26 AM 51.8 °F 51.8 °F 100% 29.85 in 2.5 mi Variable 3.5 mph - 0.05 in Rain Rain
8:33 AM 53.6 °F 51.8 °F 94% 29.85 in 2.0 mi Calm Calm - 0.07 in Rain Rain
8:45 AM 53.6 °F 51.8 °F 94% 29.86 in 2.0 mi ENE 3.5 mph - 0.10 in Rain Rain
8:53 AM 52.0 °F 52.0 °F 100% 29.86 in 2.0 mi Calm Calm - 0.13 in Rain Heavy Rain
9:02 AM 53.6 °F 51.8 °F 94% 29.86 in 3.0 mi ENE 3.5 mph - 0.03 in Rain Rain
9:09 AM 53.6 °F 51.8 °F 94% 29.85 in 3.0 mi Calm Calm - 0.04 in Rain Rain
9:29 AM 53.6 °F 51.8 °F 94% 29.86 in 2.5 mi Calm Calm - 0.08 in Rain Rain
9:40 AM 53.6 °F 51.8 °F 94% 29.86 in 3.0 mi Calm Calm - 0.11 in Rain Rain
9:53 AM 54.0 °F 53.1 °F 97% 29.86 in 3.0 mi Calm Calm - 0.13 in Rain Rain
10:27 AM 53.6 °F 53.6 °F 100% 29.86 in 3.0 mi Calm Calm - 0.05 in Rain Rain
10:32 AM 53.6 °F 53.6 °F 100% 29.86 in 2.5 mi Calm Calm - 0.07 in Rain Rain
10:40 AM 53.6 °F 51.8 °F 94% 29.86 in 3.0 mi Calm Calm - 0.09 in Rain Rain
10:53 AM 54.0 °F 53.1 °F 97% 29.86 in 3.0 mi Variable 3.5 mph - 0.11 in Rain Rain
11:05 AM 53.6 °F 53.6 °F 100% 29.87 in 2.5 mi East 4.6 mph - 0.03 in Rain Rain
11:26 AM 53.6 °F 53.6 °F 100% 29.86 in 2.0 mi Variable 3.5 mph - 0.08 in Rain Rain
11:53 AM 54.0 °F 53.1 °F 97% 29.87 in 1.8 mi Variable 3.5 mph - 0.14 in Rain Rain
12:23 PM 53.6 °F 53.6 °F 100% 29.87 in 3.0 mi Calm Calm - 0.10 in Rain Light Rain
12:32 PM 53.6 °F 53.6 °F 100% 29.86 in 2.5 mi Variable 3.5 mph - 0.12 in Rain Rain
12:41 PM 55.4 °F 53.6 °F 94% 29.86 in 2.0 mi Calm Calm - 0.14 in Rain Rain
12:49 PM 55.0 °F 54.0 °F 96% 29.86 in 3.0 mi NE 3.5 mph - 0.16 in Rain Rain
1:08 PM 55.4 °F 53.6 °F 94% 29.86 in 2.5 mi Variable 4.6 mph - 0.02 in Rain Rain
1:30 PM 55.4 °F 53.6 °F 94% 29.85 in 3.0 mi Variable 3.5 mph - 0.04 in Rain Light Rain
1:35 PM 55.4 °F 53.6 °F 94% 29.85 in 2.5 mi Calm Calm - 0.05 in Rain Light Rain
1:53 PM 55.9 °F 55.0 °F 97% 29.85 in 1.8 mi ENE 3.5 mph - 0.07 in Rain Rain
2:06 PM 55.4 °F 55.4 °F 100% 29.84 in 2.0 mi Variable 3.5 mph - 0.02 in Rain Light Rain
2:14 PM 55.4 °F 55.4 °F 100% 29.84 in 2.5 mi Calm Calm - 0.03 in Rain Light Rain
2:43 PM 57.2 °F 55.4 °F 94% 29.84 in 3.0 mi Calm Calm - 0.06 in Rain Light Rain
2:50 PM 57.2 °F 55.4 °F 94% 29.84 in 2.5 mi Calm Calm - 0.07 in Rain Light Rain
2:53 PM 57.0 °F 55.9 °F 96% 29.84 in 2.5 mi Calm Calm - 0.07 in Rain Light Rain
3:03 PM 57.2 °F 55.4 °F 94% 29.84 in 4.0 mi Calm Calm - 0.01 in Rain Light Rain
3:18 PM 57.2 °F 55.4 °F 94% 29.83 in 7.0 mi Calm Calm - 0.02 in Rain Light Rain
3:42 PM 55.4 °F 55.4 °F 100% 29.83 in 2.5 mi East 4.6 mph - 0.04 in Rain Rain
3:53 PM 57.0 °F 55.0 °F 93% 29.83 in 2.5 mi Calm Calm - 0.06 in Rain Light Rain
4:17 PM 57.2 °F 55.4 °F 94% 29.82 in 6.0 mi East 6.9 mph - 0.02 in Rain Light Rain
4:53 PM 57.0 °F 55.9 °F 96% 29.81 in 6.0 mi Variable 3.5 mph - 0.03 in Rain Light Rain
5:01 PM 57.2 °F 55.4 °F 94% 29.82 in 5.0 mi East 4.6 mph - 0.01 in Rain Rain
5:11 PM 57.2 °F 55.4 °F 94% 29.82 in 2.0 mi Calm Calm - 0.05 in Rain Rain
5:23 PM 57.2 °F 55.4 °F 94% 29.81 in 4.0 mi Calm Calm - 0.06 in Rain Light Rain
5:53 PM 57.9 °F 55.9 °F 93% 29.81 in 10.0 mi Calm Calm - 0.07 in   Overcast
6:44 PM 59.0 °F 55.4 °F 88% 29.79 in 10.0 mi Variable 4.6 mph - 0.00 in   Overcast
6:46 PM 57.2 °F 55.4 °F 94% 29.79 in 10.0 mi ENE 6.9 mph - 0.00 in   Overcast
6:53 PM 57.9 °F 55.9 °F 93% 29.79 in 10.0 mi ENE 4.6 mph - 0.00 in Rain Light Rain
7:20 PM 57.2 °F 55.4 °F 94% 29.79 in 7.0 mi ENE 3.5 mph - 0.03 in Rain Light Rain
7:31 PM 57.2 °F 55.4 °F 94% 29.79 in 4.0 mi Variable 3.5 mph - 0.04 in Rain Light Rain
7:53 PM 57.0 °F 55.9 °F 96% 29.80 in 8.0 mi East 3.5 mph - 0.05 in Rain Light Rain
7:59 PM 57.2 °F 55.4 °F 94% 29.81 in 4.0 mi Variable 3.5 mph - 0.00 in Rain Light Rain
8:08 PM 57.2 °F 55.4 °F 94% 29.81 in 2.0 mi Calm Calm - 0.04 in Rain Light Rain
8:11 PM 57.2 °F 55.4 °F 94% 29.81 in 3.0 mi Calm Calm - 0.04 in Rain Light Rain
8:30 PM 57.2 °F 55.4 °F 94% 29.82 in 2.5 mi Calm Calm - 0.05 in Rain Heavy Rain
8:39 PM 57.2 °F 55.4 °F 94% 29.81 in 3.0 mi Calm Calm - 0.10 in Rain Rain
8:53 PM 57.0 °F 53.1 °F 87% 29.81 in 5.0 mi Calm Calm - 0.14 in Rain Heavy Rain
9:03 PM 55.4 °F 53.6 °F 94% 29.81 in 2.5 mi Calm Calm - 0.06 in Rain Rain
9:10 PM 55.4 °F 55.4 °F 100% 29.82 in 7.0 mi SSW 3.5 mph - 0.07 in Rain Light Rain
9:33 PM 57.2 °F 53.6 °F 88% 29.82 in 2.5 mi Variable 4.6 mph - 0.17 in Rain Heavy Rain
9:41 PM 55.4 °F 53.6 °F 94% 29.81 in 10.0 mi ENE 8.1 mph - 0.17 in Rain Light Rain
9:53 PM 57.0 °F 53.1 °F 87% 29.81 in 10.0 mi Calm Calm - 0.17 in   Overcast
10:02 PM 55.4 °F 53.6 °F 94% 29.81 in 10.0 mi Calm Calm - N/A   Overcast
10:53 PM 52.0 °F 50.0 °F 93% 29.84 in 10.0 mi Variable 6.9 mph 16.1 mph 0.00 in Rain Light Rain
11:03 PM 51.8 °F 50.0 °F 94% 29.84 in 1.8 mi SSW 5.8 mph - 0.02 in Rain Heavy Rain
11:14 PM 51.8 °F 51.8 °F 100% 29.84 in 3.0 mi Variable 3.5 mph - 0.11 in Rain Light Rain
11:39 PM 51.8 °F 50.0 °F 94% 29.83 in 8.0 mi Calm Calm - 0.13 in Rain Light Rain
11:53 PM 52.0 °F 51.1 °F 97% 29.83 in 10.0 mi Calm Calm - 0.14 in Rain Light Rain